FENGYUN 1C DEB, 29819

Orbit data source: Space-Track

FENGYUN 1C DEB, 29819 is space debris in SSO originally from a launch on Mon, 10 May 1999 UTC launched from the Taiyaun Space Center, China (TSC). Fengyun 1C debris stems from the Chinese weather satellite Fengyun-1C, which was intentionally destroyed by a Chinese anti-satellite missile in 2007. This event dramatically increased the amount of space debris, with thousands of trackable fragments posing hazards to satellites and human spaceflight. The Fengyun 1C debris cloud has become a focal point in discussions about space sustainability and the need for international regulations to prevent the creation of new debris.

Loading next visibility...
Identifier
29819, 1999-025DM
Orbit
SSO
Country
Flag of CNCN / PRC
Related business
Manufacturer
Unknown
Mission
Spacecraft
Bus & Motor
Unknown
Mass
Unknown
Launch date (UTC)
1999-05-10 (27 years ago)
Launch vehicle
Unknown
Launch site
Taiyaun Space Center, China (TSC)
Object type
Payload
Rocket body
Debris
Shape & HBR
Unknown shape, 0.1 m
Radar Cross Section
Medium (>0.1 m² and <1 m²)

Expand to show TLE details & history
Last TLE update: 1 day ago

TLE from 1 day ago
0 FENGYUN 1C DEB
1 29819U 99025DM  26206.45357925  .00000060  00000-0  56037-4 0  9991
2 29819  98.7555 186.3319 0191086 157.9218 354.7002 14.02438775997691
Epoch: 2026-07-25T10:53Z
TLE epoch observation values (Epoch: 2026-07-25T10:53:09.247Z)
Latitude
27.27805°
Longitude
-95.59169°
Altitude
750.468 km
Speed
7.553 km/s
True Right ascension
00h 43m 26s
True Declination
27° 08' 17"
Sunlit
Object was in daylight at epoch
Visualization orbit readout
Latitude
Unknown
Longitude
Unknown
Altitude
Unknown
Speed
Unknown
Apparent Right ascension
Unknown
Apparent Declination
Unknown
Sunlit
N/A
Visualization observer readout
Local Sidereal Time
00:11:29
Azimuth
Unknown
Elevation
Unknown
Doppler factor
Unknown
Orbital elements
Apogee altitude
1,021.287 km
Perigee altitude
743.804 km
Semi-major axis
7,260.682 km
Eccentricity
0.01911
Inclination
98.7555°
RAAN
186.3319°
Arg. of periapsis
157.9218°
True anomaly
354.49302°
Mean anomaly
354.7002°
Eccentric anomaly
354.59711°
Mean motion
3.50814 °/min
Orbital period
102.62 mins
BSTAR
0.000056037
Loading maneuver chart data...
Computing Atmospheric mass density...

Documentation

Showing up to 5 results
|